(2020 YE5) |
Classification: Apollo [NEO] SPK-ID: 54103878 |
[ hide orbit diagram ]
For accurate long-term ephemerides, please instead use our Horizons system.This orbit viewer was implemented using two-body methods, and hence should not be used for determining accurate long-term trajectories (over several years or decades) or planetary encounter circumstances.
Orbital Elements at Epoch 2459200.5 (2020-Dec-17.0) TDB
Reference: JPL 19 (heliocentric ecliptic J2000)
Element | Value | Uncertainty (1-sigma) | Units |
e | .4736705502871161 | 5.3494e-05 | |
a | 1.669816965981532 | 0.00015151 | au |
q | .8788738448262973 | 9.5826e-06 | au |
i | 1.142204474754204 | 0.00010125 | deg |
node | 125.9259345378069 | 5.5531e-05 | deg |
peri | 45.10576523028208 | 0.00033065 | deg |
M | 326.818877087425 | 0.004834 | deg |
tp | 2459273.142420939946 (2021-Feb-27.64242094) | 0.00069635 | TDB |
period | 788.1370262026228 2.16 | 0.10727 0.0002937 | d yr |
n | .4567733630464499 | 6.2167e-05 | deg/d |
Q | 2.460760087136767 | 0.00022327 | au |
|
| | Orbit Determination Parameters
Additional Information
|
[ show covariance matrix ]
Physical Parameter Table
Parameter |
Symbol |
Value |
Units |
Sigma |
Reference |
Notes |
absolute magnitude |
H |
25.74 |
|
.35589 |
E2021C77 |
autocmod 2.8 |
|
[ show close-approach data ]
|